FW2125 Weather Reports


time (UTC)temp
C
wind
direction
speed
KPH
gust
KPH
rain 1hr
cm
rain 24hr
cm
rain mn
cm
humidity
%
barometer
mb
20260510094825 18 0.0 0.0 0.00 0.03 0.00 99 1013.1
20260510093821 18 0.0 0.0 0.00 0.03 0.00 99 1013.3
20260510092819 18 0.0 0.0 0.00 0.03 0.00 99 1013.4
20260510091835 18 0.0 0.0 0.00 0.05 0.00 99 1013.2
20260510090833 18 0.0 0.0 0.00 0.05 0.00 99 1013.1
20260510085833 18 0.0 0.0 0.00 0.08 0.00 99 1013.1
20260510084845 19 0.0 0.0 0.00 0.08 0.00 99 1013.2
20260510083826 20 0.0 0.0 0.00 0.08 0.00 99 1013.1
20260510082826 20 0.0 0.0 0.00 0.08 0.00 99 1013.1
20260510081822 20 0.0 0.0 0.00 0.08 0.00 99 1013.1
20260510080819 20 0.0 0.0 0.00 0.08 0.00 99 1013.3
20260510075916 20 0.0 0.0 0.00 0.08 0.00 99 1013.5
20260510074926 20 0.0 0.0 0.00 0.08 0.00 98 1013.4
20260510073825 20 0.0 0.0 0.00 0.08 0.00 98 1013.4
20260510072825 21 0.0 0.0 0.00 0.08 0.00 98 1013.2
20260510071826 21 0.0 0.0 0.00 0.08 0.00 97 1013.4
20260510070824 21 0.0 0.0 0.00 0.08 0.00 97 1013.3
20260510065822 21 0.0 0.0 0.00 0.08 0.00 96 1013.3
20260510064820 21 0.0 0.0 0.00 0.08 0.00 96 1013.2
20260510063825 21 0.0 0.0 0.00 0.08 0.00 96 1013.0
20260510062825 21 0.0 0.0 0.00 0.08 0.00 96 1013.0
20260510061833 21 0.0 0.0 0.00 0.08 0.00 96 1013.1
20260510060829 21 0.0 0.0 0.00 0.08 0.00 97 1013.2
20260510055907 21 0.0 0.0 0.00 0.08 0.00 96 1013.1
20260510054825 21 0.0 0.0 0.00 0.08 0.00 96 1013.2
20260510053905 21 0.0 0.0 0.00 0.08 0.00 97 1013.2
20260510052820 21 0.0 0.0 0.00 0.08 0.00 98 1013.2
20260510051856 20 0.0 0.0 0.00 0.08 0.00 99 1013.2
20260510050846 20 0.0 0.0 0.00 0.08 0.00 99 1013.2
20260510045833 20 0.0 0.0 0.00 0.08 0.08 99 1013.1
20260510044825 20 0.0 0.0 0.00 0.08 0.08 99 1013.1
20260510043847 20 0.0 0.0 0.00 0.08 0.08 99 1012.9
20260510042825 21 0.0 0.0 0.00 0.08 0.08 99 1012.9
20260510041823 21 0.0 0.0 0.00 0.08 0.08 99 1012.8
20260510040821 21 0.0 0.0 0.00 0.08 0.08 98 1012.8
20260510035833 21 0.0 0.0 0.00 0.08 0.08 97 1012.9
20260510034825 21 0.0 0.0 0.00 0.08 0.08 96 1012.8
20260510033825 22 0.0 0.0 0.00 0.08 0.08 94 1012.7
20260510032825 22 0.0 0.0 0.00 0.08 0.08 94 1012.7
20260510031827 22 0.0 0.0 0.00 0.08 0.08 93 1012.6
20260510030906 23 0.0 0.0 0.00 0.08 0.08 92 1012.4
20260510025823 23 0.0 0.0 0.00 0.08 0.08 91 1012.2
20260510024821 23 0.0 0.0 0.00 0.08 0.08 89 1012.1
20260510023825 23 0.0 0.0 0.00 0.08 0.08 90 1012.1
20260510022825 22 0.0 0.0 0.00 0.08 0.08 86 1012.0
20260510021833 23 0.0 0.0 0.00 0.08 0.08 86 1011.8
20260510020910 23 0.0 0.0 0.00 0.08 0.08 82 1011.7
20260510015828 24 0.0 0.0 0.00 0.08 0.08 81 1011.5
20260510014826 25 0.0 0.0 0.00 0.08 0.08 79 1011.4
20260510013825 25 0.0 0.0 0.00 0.08 0.08 75 1011.3
20260510012822 26 0.0 0.0 0.00 0.08 0.08 72 1011.2
20260510011819 27 0.0 0.0 0.00 0.08 0.08 70 1011.2
20260510010835 27 0.0 0.0 0.00 0.08 0.08 68 1011.1
20260510005853 27 0.0 0.0 0.00 0.08 0.08 66 1011.0
20260510004825 28 0.0 0.0 0.00 0.08 0.08 64 1011.0
20260510003825 30 0.0 0.0 0.00 0.08 0.08 60 1010.9
20260510002826 30 0.0 0.0 0.00 0.08 0.08 56 1010.9
20260510001824 30 0.0 0.0 0.00 0.08 0.08 50 1010.7
20260510000821 31 0.0 0.0 0.00 0.08 0.08 46 1010.6
20260509235819 32 0.0 0.0 0.00 0.08 0.08 44 1010.5
20260509234825 32 0.0 0.0 0.00 0.08 0.08 42 1010.4
20260509233825 32 0.0 0.0 0.00 0.08 0.08 43 1010.4
20260509232825 32 0.0 0.0 0.00 0.08 0.08 43 1010.3
20260509231829 32 0.0 0.0 0.00 0.08 0.08 49 1010.2
20260509230827 32 135 8.0 11.3 0.00 0.08 0.08 49 1010.2
20260509225844 32 0.0 1.6 0.00 0.08 0.08 51 1010.2
20260509224822 32 119 8.0 11.3 0.00 0.08 0.08 52 1010.3
20260509223819 32 113 1.6 8.0 0.00 0.08 0.08 50 1010.3
20260509222845 32 0.0 0.0 0.00 0.08 0.08 49 1010.2
20260509221833 33 0.0 0.0 0.00 0.08 0.08 46 1010.2
20260509220833 34 0.0 0.0 0.00 0.08 0.08 46 1010.2
20260509215828 33 0.0 0.0 0.00 0.08 0.08 48 1010.1
20260509214906 32 0.0 0.0 0.00 0.08 0.08 51 1010.1
20260509213825 31 135 8.0 8.0 0.00 0.08 0.08 52 1010.3
20260509212841 29 121 11.3 14.5 0.00 0.08 0.08 56 1010.6
20260509211819 30 134 19.3 24.1 0.00 0.08 0.08 56 1010.9
20260509210825 32 68 14.5 16.1 0.00 0.08 0.08 49 1011.2
20260509205825 39 0.0 0.0 0.00 0.08 0.08 41 1011.1
20260509204825 38 0.0 0.0 0.00 0.08 0.08 44 1010.7
20260509203828 36 0.0 0.0 0.00 0.08 0.08 47 1010.8
20260509202826 35 0.0 0.0 0.00 0.08 0.08 47 1010.8
20260509201826 35 0.0 0.0 0.00 0.08 0.08 49 1011.0
20260509200821 36 0.0 0.0 0.00 0.08 0.08 46 1011.2
20260509195819 37 0.0 1.6 0.00 0.08 0.08 49 1011.2
20260509194825 37 0.0 0.0 0.00 0.08 0.08 48 1011.3
20260509193826 36 326 3.2 6.4 0.00 0.08 0.08 49 1011.5
20260509192825 36 0.0 0.0 0.00 0.08 0.08 48 1011.6
20260509191845 35 0.0 0.0 0.00 0.08 0.08 54 1011.7
20260509190826 33 0.0 0.0 0.00 0.08 0.08 57 1011.9
20260509185824 33 0.0 0.0 0.00 0.08 0.08 56 1012.0
20260509184902 35 0.0 0.0 0.00 0.08 0.08 56 1012.2
20260509183819 33 0.0 0.0 0.00 0.08 0.08 57 1012.4
20260509182825 35 0.0 0.0 0.00 0.08 0.08 55 1012.5
20260509181826 35 0.0 0.0 0.00 0.08 0.08 55 1012.5
20260509180845 35 0.0 0.0 0.00 0.08 0.08 55 1012.7
20260509175829 36 0.0 0.0 0.00 0.08 0.08 55 1012.8
20260509174826 -17 0.0 0.0 0.00 0.08 0.08
20260509173844 33 0.0 0.0 0.00 0.08 0.08 61 1013.1
20260509172822 33 0.0 0.0 0.00 0.08 0.08 64 1013.1
20260509171839 32 0.0 0.0 0.00 0.08 0.08 68 1013.3
20260509170825 32 0.0 0.0 0.00 0.08 0.08 69 1013.2
20260509165853 31 294 3.2 6.4 0.00 0.08 0.08 70 1013.2
20260509164831 30 0.0 0.0 0.00 0.08 0.08 73 1013.3
20260509163829 30 0.0 0.0 0.00 0.08 0.08 73 1013.3
20260509162827 30 0.0 0.0 0.00 0.08 0.08 74 1013.3
20260509161846 29 0.0 0.0 0.00 0.08 0.08 76 1013.3
20260509160822 28 0.0 0.0 0.00 0.08 0.08 81 1013.2
20260509155820 28 270 4.8 8.0 0.00 0.08 0.08 84 1013.3
20260509154836 27 0.0 0.0 0.00 0.08 0.08 85 1013.4
20260509153854 27 1.6 3.2 0.00 0.08 0.08 86 1013.6
20260509152905 26 0.0 0.0 0.00 0.08 0.08 90 1013.6
20260509151826 26 0.0 0.0 0.00 0.08 0.08 93 1013.7
20260509150827 24 158 6.4 8.0 0.00 0.08 0.08 99 1013.5
20260509145825 23 3.2 4.8 0.00 0.08 0.08 99 1013.5
20260509144823 23 129 3.2 6.4 0.00 0.08 0.08 99 1013.5
20260509143841 23 135 3.2 6.4 0.00 0.08 0.08 99 1013.1
20260509142826 23 0.0 0.0 0.00 0.08 0.08 99 1013.0
20260509141825 22 0.0 0.0 0.00 0.08 0.08 99 1012.9
20260509140826 22 0.0 0.0 0.00 0.08 0.08 99 1013.3
20260509135830 22 0.0 0.0 0.00 0.08 0.08 99 1013.1
20260509134827 22 0.0 0.0 0.00 0.08 0.08 99 1013.2
20260509133825 -17 0.0 0.0 0.00 0.08 0.08
20260509132825 22 0.0 0.0 0.00 0.08 0.08 99 1013.2
20260509131821 22 0.0 0.0 0.00 0.08 0.08 99 1013.2
20260509130826 22 0.0 0.0 0.00 0.08 0.08 99 1013.2
20260509125915 22 0.0 0.0 0.00 0.08 0.08 99 1012.9
20260509124832 21 0.0 0.0 0.00 0.08 0.08 99 1012.9
20260509123830 21 0.0 0.0 0.00 0.08 0.08 99 1012.6
20260509122828 21 0.0 0.0 0.00 0.08 0.08 99 1012.4
20260509121826 21 0.0 0.0 0.00 0.08 0.08 99 1012.6
20260509120825 21 0.0 0.0 0.03 0.08 0.08 99 1012.7
20260509115821 21 0.0 0.0 0.03 0.08 0.08 99 1012.8
20260509114837 21 0.0 0.0 0.03 0.08 0.08 99 1013.0
20260509113835 21 0.0 0.0 0.03 0.08 0.08 99 1013.1
20260509112826 21 0.0 0.0 0.03 0.08 0.08 99 1013.2
20260509111846 21 0.0 0.0 0.03 0.08 0.08 99 1013.6
20260509110848 21 0.0 0.0 0.00 0.05 0.05 99 1013.5
20260509105845 -17 0.0 0.0 0.00 0.05 0.05
20260509104824 21 0.0 0.0 0.00 0.05 0.05 99 1013.5
20260509103821 21 0.0 0.0 0.00 0.05 0.05 99 1013.3
20260509102819 21 0.0 0.0 0.00 0.05 0.05 99 1013.0
20260509101826 21 0.0 0.0 0.03 0.05 0.05 99 1012.8
20260509100826 21 0.0 0.0 0.03 0.05 0.05 99 1012.7
20260509095830 21 0.0 0.0 0.05 0.05 0.05 99 1012.6